WA2GUG Weather Reports


Display with metric or nautical units.
time (UTC)temp
F
wind
direction
speed
MPH
gust
MPH
rain 1hr
in
rain 24hr
in
rain mn
in
humidity
%
barometer
mb
20260507195425 65 5 0.0 0.0 0.00 0.00 0.00 99 1006.0
20260507194925 66 92 0.0 0.0 0.00 0.00 0.00 99 1006.0
20260507194425 68 50 0.0 3.0 0.00 0.00 0.00 99 1006.0
20260507193925 67 41 0.0 3.0 0.00 0.00 0.00 99 1006.0
20260507193425 64 39 0.0 2.0 0.00 0.00 0.00 99 1006.0
20260507192925 63 47 0.0 2.0 0.00 0.00 0.00 99 1006.0
20260507192425 63 48 0.0 2.0 0.00 0.00 0.00 99 1006.0
20260507191925 63 45 0.0 1.0 0.00 0.00 0.00 99 1006.0
20260507191425 63 92 0.0 2.0 0.00 0.00 0.00 99 1006.0
20260507190925 64 55 0.0 2.0 0.00 0.00 0.00 99 1006.0
20260507190425 64 45 0.0 0.0 0.00 0.00 0.00 99 1006.0
20260507185924 65 86 0.0 0.0 0.00 0.00 0.00 99 1006.0
20260507185425 64 4 0.0 0.0 0.00 0.00 0.00 99 1006.0
20260507184925 64 50 0.0 1.0 0.00 0.00 0.00 99 1006.1
20260507184425 64 84 0.0 1.0 0.00 0.00 0.00 99 1006.1
20260507183924 64 91 0.0 0.0 0.00 0.00 0.00 99 1006.1
20260507183425 66 83 0.0 1.0 0.00 0.00 0.00 99 1006.2
20260507182924 69 81 0.0 1.0 0.00 0.00 0.00 99 1006.2
20260507182425 69 72 0.0 0.0 0.00 0.00 0.00 99 1006.2
20260507181924 66 103 0.0 0.0 0.00 0.00 0.00 99 1006.2
20260507181424 64 95 0.0 0.0 0.00 0.00 0.00 99 1006.2
20260507180924 63 40 0.0 6.0 0.00 0.00 0.00 99 1007.0
20260507180424 64 82 0.0 6.0 0.00 0.00 0.00 99 1006.2
20260507175924 65 6 0.0 0.0 0.00 0.00 0.00 99 1007.0
20260507175424 66 8 0.0 1.0 0.00 0.00 0.00 99 1006.2
20260507174924 68 86 0.0 1.0 0.00 0.00 0.00 99 1007.0
20260507174424 70 37 0.0 0.0 0.00 0.00 0.00 99 1007.0
20260507173924 71 93 0.0 1.0 0.00 0.00 0.00 99 1006.2
20260507173425 71 78 0.0 2.0 0.00 0.00 0.00 99 1007.0
20260507172924 71 41 0.0 2.0 0.00 0.00 0.00 99 1007.0
20260507172424 70 84 0.0 0.0 0.00 0.00 0.00 99 1007.0
20260507171924 67 133 0.0 0.0 0.00 0.00 0.00 99 1006.2
20260507171424 67 142 0.0 3.0 0.00 0.00 0.00 99 1007.0
20260507170924 66 92 0.0 3.0 0.00 0.00 0.00 99 1007.0
20260507170424 67 39 0.0 3.0 0.00 0.00 0.00 99 1007.0
20260507165924 70 6 1.0 4.0 0.00 0.00 0.00 99 1007.0
20260507165424 71 77 0.0 4.0 0.00 0.00 0.00 99 1007.0
20260507164924 71 51 0.0 1.0 0.00 0.00 0.00 99 1006.2
20260507164424 71 49 0.0 2.0 0.00 0.00 0.00 99 1007.0
20260507163924 70 309 0.0 3.0 0.00 0.00 0.00 99 1007.0
20260507163425 69 49 0.0 3.0 0.00 0.00 0.00 99 1007.0
20260507162924 67 77 0.0 3.0 0.00 0.00 0.00 99 1007.0
20260507162424 67 10 0.0 2.0 0.00 0.00 0.00 99 1006.2
20260507161924 68 137 0.0 2.0 0.00 0.00 0.00 99 1007.0
20260507161424 67 83 0.0 2.0 0.00 0.00 0.00 99 1006.2
20260507160924 66 13 0.0 2.0 0.00 0.00 0.00 99 1007.0
20260507160424 66 86 0.0 0.0 0.00 0.00 0.00 99 1007.0
20260507155924 67 97 0.0 0.0 0.00 0.00 0.00 99 1007.0
20260507155424 69 358 0.0 0.0 0.00 0.00 0.00 99 1007.0
20260507154924 69 83 0.0 0.0 0.00 0.00 0.00 99 1007.0
20260507154424 69 44 0.0 0.0 0.00 0.00 0.00 99 1007.0
20260507153924 68 86 0.0 0.0 0.00 0.00 0.00 99 1007.0
20260507153424 67 1 0.0 0.0 0.00 0.00 0.00 99 1007.0
20260507152924 67 143 0.0 4.0 0.00 0.00 0.00 99 1007.0
20260507152424 67 42 0.0 4.0 0.00 0.00 0.00 99 1007.0
20260507151924 68 50 0.0 0.0 0.00 0.00 0.00 99 1007.1
20260507151424 67 83 0.0 0.0 0.00 0.00 0.00 99 1007.1
20260507150924 67 269 0.0 0.0 0.00 0.00 0.00 99 1007.0
20260507150424 68 90 0.0 0.0 0.00 0.00 0.00 99 1007.2
20260507145924 67 93 0.0 0.0 0.00 0.00 0.00 99 1007.2
20260507145424 66 2 0.0 0.0 0.00 0.00 0.00 99 1008.0
20260507144924 66 130 0.0 0.0 0.00 0.00 0.00 99 1007.2
20260507144424 65 127 0.0 0.0 0.00 0.00 0.00 99 1008.0
20260507143924 64 91 0.0 0.0 0.00 0.00 0.00 99 1007.2
20260507143424 64 136 0.0 0.0 0.00 0.00 0.00 99 1007.2
20260507142924 64 15 0.0 5.0 0.00 0.00 0.00 99 1007.2
20260507142424 64 37 0.0 5.0 0.00 0.00 0.00 99 1008.0
20260507141924 64 49 0.0 3.0 0.00 0.00 0.00 99 1007.2
20260507141424 64 132 0.0 3.0 0.00 0.00 0.00 99 1008.0
20260507140924 64 93 0.0 0.0 0.00 0.00 0.00 99 1007.2
20260507140424 64 130 0.0 0.0 0.00 0.00 0.00 99 1008.0
20260507135924 64 103 0.0 0.0 0.00 0.00 0.00 99 1007.2
20260507135424 62 82 0.0 2.0 0.00 0.00 0.00 99 1008.0
20260507134924 63 38 0.0 2.0 0.00 0.00 0.00 99 1007.2
20260507134424 62 54 0.0 0.0 0.00 0.00 0.00 99 1008.0
20260507133924 62 18 0.0 0.0 0.00 0.00 0.00 99 1007.2
20260507133424 62 19 0.0 1.0 0.00 0.00 0.00 99 1007.2
20260507132924 61 13 0.0 1.0 0.00 0.00 0.00 99 1007.2
20260507132424 60 53 0.0 2.0 0.00 0.00 0.00 99 1007.2
20260507131924 60 48 0.0 4.0 0.00 0.00 0.00 99 1007.2
20260507131424 60 10 0.0 6.0 0.00 0.00 0.00 99 1007.2
20260507130924 59 52 0.0 8.0 0.00 0.00 0.00 99 1007.2
20260507130424 59 46 0.0 8.0 0.00 0.00 0.00 99 1008.0
20260507125924 58 40 0.0 2.0 0.00 0.00 0.00 99 1007.2
20260507125425 58 45 0.0 3.0 0.00 0.00 0.00 99 1007.2
20260507124924 58 43 0.0 3.0 0.00 0.00 0.00 99 1007.2
20260507124424 58 38 0.0 1.0 0.00 0.00 0.00 99 1008.0
20260507123924 58 60 0.0 5.0 0.00 0.00 0.00 99 1007.2
20260507123424 58 43 1.0 5.0 0.00 0.00 0.00 99 1007.2
20260507122924 57 45 0.0 3.0 0.00 0.00 0.00 99 1007.2
20260507122424 57 66 0.0 4.0 0.00 0.00 0.00 99 1007.2
20260507121924 55 78 0.0 5.0 0.00 0.00 0.00 99 1007.2
20260507121424 55 87 0.0 6.0 0.00 0.00 0.00 99 1008.0
20260507120924 55 67 0.0 6.0 0.00 0.00 0.00 99 1007.2
20260507120424 55 39 0.0 5.0 0.00 0.00 0.00 99 1007.2
20260507115924 0 93 0.0 0.0 0.00 0.00 0.00 99 1007.2
20260507115424 0 44 0.0 0.0 0.00 0.00 0.00 99 1007.2
20260507114924 0 44 0.0 2.0 0.00 0.00 0.00 99 1007.2
20260507114424 0 82 0.0 2.0 0.00 0.00 0.00 99 1008.0
20260507113924 0 39 0.0 5.0 0.00 0.00 0.00 99 1007.2
20260507113424 0 47 1.0 5.0 0.00 0.00 0.00 99 1008.0
20260507112924 0 82 2.0 4.0 0.00 0.00 0.00 99 1007.2
20260507112424 0 73 1.0 3.0 0.00 0.00 0.00 99 1008.0
20260507111924 0 46 1.0 4.0 0.00 0.00 0.00 99 1008.0
20260507111424 0 78 1.0 4.0 0.00 0.00 0.00 99 1007.2
20260507110924 0 39 1.0 4.0 0.00 0.00 0.00 99 1007.2
20260507110424 0 50 1.0 4.0 0.00 0.00 0.00 99 1008.0
20260507105924 0 82 1.0 3.0 0.00 0.00 0.00 99 1007.2
20260507105424 0 47 0.0 4.0 0.00 0.00 0.00 99 1008.0
20260507104924 0 51 1.0 4.0 0.00 0.00 0.00 99 1007.2
20260507104424 0 82 1.0 3.0 0.00 0.00 0.00 99 1007.1
20260507103924 0 41 2.0 5.0 0.00 0.00 0.00 99 1007.0
20260507103424 0 43 2.0 5.0 0.00 0.00 0.00 99 1007.0
20260507102924 0 55 1.0 3.0 0.00 0.00 0.00 99 1007.0
20260507102424 0 48 1.0 3.0 0.00 0.00 0.00 99 1007.0
20260507101924 0 78 1.0 5.0 0.00 0.00 0.00 99 1007.0
20260507101424 0 46 1.0 5.0 0.00 0.00 0.00 99 1007.0
20260507100924 0 50 0.0 0.0 0.00 0.00 0.00 99 1007.0
20260507100424 0 73 0.0 0.0 0.00 0.00 0.00 99 1007.0
20260507095924 0 47 0.0 0.0 0.00 0.00 0.00 99 1007.0
20260507095424 0 70 0.0 0.0 0.00 0.00 0.00 99 1007.0
20260507094924 0 67 0.0 0.0 0.00 0.00 0.00 99 1007.0
20260507094424 0 49 0.0 2.0 0.00 0.00 0.00 99 1007.0
20260507093924 0 41 0.0 2.0 0.00 0.00 0.00 99 1007.0
20260507093424 0 87 0.0 0.0 0.00 0.00 0.00 99 1006.2
20260507092924 0 48 0.0 0.0 0.00 0.00 0.00 99 1007.0
20260507092424 0 135 0.0 0.0 0.00 0.00 0.00 99 1007.0
20260507091924 0 128 0.0 0.0 0.00 0.00 0.00 99 1007.0
20260507091424 0 179 0.0 0.0 0.00 0.00 0.00 99 1007.0
20260507090924 0 183 0.0 0.0 0.00 0.00 0.00 99 1007.0
20260507090424 0 56 0.0 0.0 0.00 0.00 0.00 99 1007.0
20260507085924 0 309 0.0 0.0 0.00 0.00 0.00 99 1007.0
20260507085424 0 113 0.0 0.0 0.00 0.00 0.00 99 1007.0
20260507084924 0 132 0.0 0.0 0.00 0.00 0.00 99 1007.0
20260507084424 0 104 0.0 0.0 0.00 0.00 0.00 99 1007.0
20260507083924 0 85 0.0 0.0 0.00 0.00 0.00 99 1007.0
20260507083424 0 43 0.0 0.0 0.00 0.00 0.00 99 1007.0
20260507082924 0 45 0.0 0.0 0.00 0.00 0.00 99 1007.0
20260507082424 0 67 0.0 0.0 0.00 0.00 0.00 99 1007.0
20260507081924 0 63 0.0 0.0 0.00 0.00 0.00 99 1007.0
20260507081424 0 93 0.0 0.0 0.00 0.00 0.00 99 1006.2
20260507080924 0 129 0.0 0.0 0.00 0.00 0.00 99 1007.0
20260507080424 0 46 0.0 0.0 0.00 0.00 0.00 99 1007.0
20260507075924 0 76 0.0 0.0 0.00 0.00 0.00 99 1007.0
20260507075424 0 45 0.0 0.0 0.00 0.00 0.00 99 1007.0
20260507074924 0 55 0.0 0.0 0.00 0.00 0.00 99 1007.0
20260507074424 0 55 0.0 0.0 0.00 0.00 0.00 99 1007.0
20260507073924 0 52 0.0 0.0 0.00 0.00 0.00 99 1007.0
20260507073424 0 72 0.0 0.0 0.00 0.00 0.00 99 1006.2
20260507072924 0 45 0.0 0.0 0.00 0.00 0.00 99 1007.0
20260507072424 0 76 0.0 1.0 0.00 0.00 0.00 99 1006.2
20260507071924 0 41 0.0 1.0 0.00 0.00 0.00 99 1007.0
20260507071424 0 50 0.0 1.0 0.00 0.00 0.00 99 1007.0
20260507070924 0 44 0.0 1.0 0.00 0.00 0.00 99 1007.0
20260507070424 0 61 0.0 1.0 0.00 0.00 0.00 99 1006.2
20260507065924 0 79 0.0 1.0 0.00 0.00 0.00 99 1006.0
20260507065424 0 55 0.0 0.0 0.00 0.00 0.00 99 1006.1
20260507064924 0 53 0.0 0.0 0.00 0.00 0.00 99 1007.0
20260507064424 0 69 0.0 4.0 0.00 0.00 0.00 99 1006.2
20260507063924 0 67 0.0 4.0 0.00 0.00 0.00 99 1006.2
20260507063424 0 76 0.0 1.0 0.00 0.00 0.00 99 1006.1
20260507062924 0 54 0.0 0.0 0.00 0.00 0.00 99 1006.1
20260507062424 0 51 0.0 0.0 0.00 0.00 0.00 99 1006.2
20260507061924 0 46 0.0 0.0 0.00 0.00 0.00 99 1007.0
20260507061424 0 54 0.0 0.0 0.00 0.00 0.00 99 1006.1
20260507060924 0 76 0.0 0.0 0.00 0.00 0.00 99 1007.0
20260507060424 0 67 0.0 0.0 0.00 0.00 0.00 99 1006.2
20260507055924 0 76 0.0 0.0 0.00 0.00 0.00 99 1006.2
20260507055424 0 72 0.0 0.0 0.00 0.00 0.00 99 1006.1
20260507054924 0 36 0.0 0.0 0.00 0.00 0.00 99 1006.1
20260507054424 0 91 0.0 0.0 0.00 0.00 0.00 99 1006.2
20260507053924 0 136 0.0 0.0 0.00 0.00 0.00 99 1007.0
20260507053424 0 90 0.0 0.0 0.00 0.00 0.00 99 1006.2
20260507052924 0 140 0.0 0.0 0.00 0.00 0.00 99 1007.0
20260507052424 0 93 0.0 0.0 0.00 0.00 0.00 99 1006.1
20260507051924 0 106 0.0 0.0 0.00 0.00 0.00 99 1006.0
20260507051424 0 144 0.0 0.0 0.00 0.00 0.00 99 1006.2
20260507050924 0 96 0.0 0.0 0.00 0.00 0.00 99 1007.0
20260507050423 0 87 0.0 0.0 0.00 0.00 0.00 99 1006.2
20260507045923 0 151 0.0 1.0 0.00 0.00 0.00 99 1007.0
20260507045423 0 79 0.0 1.0 0.00 0.00 0.00 99 1006.2
20260507044923 0 85 0.0 0.0 0.00 0.00 0.00 99 1007.0
20260507044423 0 75 0.0 0.0 0.00 0.00 0.00 99 1006.2
20260507043923 0 137 0.0 0.0 0.00 0.00 0.00 99 1007.0
20260507043424 0 13 0.0 0.0 0.00 0.00 0.00 99 1006.2
20260507042923 0 183 0.0 0.0 0.00 0.00 0.00 99 1007.0
20260507042423 0 6 0.0 0.0 0.00 0.00 0.00 99 1006.2
20260507041923 0 101 0.0 0.0 0.00 0.00 0.00 99 1007.0
20260507041423 0 182 0.0 0.0 0.00 0.00 0.00 99 1006.2
20260507040923 0 76 0.0 0.0 0.00 0.00 0.00 99 1007.0
20260507040423 0 200 0.0 0.0 0.00 0.00 0.00 99 1006.2
20260507035923 0 70 0.0 0.0 0.00 0.00 0.00 99 1007.0
20260507035423 0 51 0.0 0.0 0.00 0.00 0.00 99 1006.2
20260507034923 0 38 0.0 0.0 0.00 0.00 0.00 99 1007.0
20260507034423 0 2 0.0 0.0 0.00 0.00 0.00 99 1006.2
20260507033923 0 47 0.0 0.0 0.00 0.00 0.00 99 1006.2
20260507033424 0 179 0.0 0.0 0.00 0.00 0.00 99 1006.2
20260507032923 0 153 0.0 0.0 0.00 0.00 0.00 99 1007.0
20260507032423 0 88 0.0 0.0 0.00 0.00 0.00 99 1006.2
20260507031923 0 81 0.0 2.0 0.00 0.00 0.00 99 1007.0
20260507031426 0 77 0.0 2.0 0.00 0.00 0.00 99 1007.0
20260507030923 0 83 0.0 0.0 0.00 0.00 0.00 99 1007.0
20260507030423 0 51 0.0 0.0 0.00 0.00 0.00 99 1006.2
20260507025923 0 49 0.0 0.0 0.00 0.00 0.00 99 1007.0
20260507025423 0 55 0.0 0.0 0.00 0.00 0.00 99 1006.2
20260507024923 0 59 0.0 0.0 0.00 0.00 0.00 99 1007.0
20260507024423 0 170 0.0 0.0 0.00 0.00 0.00 99 1006.2
20260507023923 0 73 0.0 0.0 0.00 0.00 0.00 99 1007.0
20260507023424 0 67 0.0 0.0 0.00 0.00 0.00 99 1006.2
20260507022923 0 135 0.0 0.0 0.00 0.00 0.00 99 1007.0
20260507022423 0 68 0.0 0.0 0.00 0.00 0.00 99 1006.2
20260507021923 49 47 0.0 0.0 0.00 0.00 0.00 99 1007.0
20260507021423 49 49 0.0 0.0 0.00 0.00 0.00 99 1007.0
20260507020923 0 87 0.0 0.0 0.00 0.00 0.00 99 1007.0
20260507020423 0 53 0.0 0.0 0.00 0.00 0.00 99 1007.0
20260507015923 0 98 0.0 0.0 0.00 0.00 0.00 99 1007.0
20260507015423 0 45 0.0 0.0 0.00 0.00 0.00 99 1007.0
20260507014923 0 176 0.0 0.0 0.00 0.00 0.00 99 1007.0
20260507014423 0 52 0.0 0.0 0.00 0.00 0.00 99 1006.2
20260507013923 0 46 0.0 0.0 0.00 0.00 0.00 99 1007.0
20260507013423 0 140 0.0 0.0 0.00 0.00 0.00 99 1006.2
20260507012923 0 35 0.0 0.0 0.00 0.00 0.00 99 1007.0
20260507012423 0 170 0.0 0.0 0.00 0.00 0.00 99 1006.2
20260507011923 0 82 0.0 0.0 0.00 0.00 0.00 99 1007.0
20260507011423 0 51 0.0 0.0 0.00 0.00 0.00 99 1007.0
20260507010923 0 80 0.0 0.0 0.00 0.00 0.00 99 1007.0
20260507010423 0 75 0.0 0.0 0.00 0.00 0.00 99 1007.0
20260507005923 49 72 0.0 0.0 0.00 0.00 0.00 99 1006.1
20260507005423 50 77 0.0 0.0 0.00 0.00 0.00 99 1006.1
20260507004923 0 62 0.0 0.0 0.00 0.00 0.00 99 1006.0
20260507004423 50 75 0.0 0.0 0.00 0.00 0.00 99 1006.0
20260507003923 50 79 0.0 0.0 0.00 0.00 0.00 99 1006.0
20260507003423 50 77 0.0 1.0 0.00 0.00 0.00 99 1006.0
20260507002923 50 80 0.0 1.0 0.00 0.00 0.00 99 1006.0
20260507002423 50 43 0.0 1.0 0.00 0.00 0.00 99 1006.0
20260507001923 49 73 0.0 10.0 0.00 0.00 0.00 99 1006.0
20260507001423 49 67 2.0 10.0 0.00 0.00 0.00 99 1006.0
20260507000923 49 48 1.0 8.0 0.00 0.00 0.00 99 1006.0
20260507000423 49 71 0.0 4.0 0.00 0.00 0.00 99 1006.0
20260506235923 49 81 0.0 0.0 0.00 0.00 0.00 99 1006.0
20260506235423 49 43 0.0 0.0 0.00 0.00 0.00 99 1006.0
20260506234923 49 89 0.0 3.0 0.00 0.00 0.00 99 1005.2
20260506234423 49 83 0.0 3.0 0.00 0.00 0.00 99 1006.0
20260506233923 49 48 0.0 3.0 0.00 0.00 0.00 99 1005.2
20260506233423 50 54 0.0 3.0 0.00 0.00 0.00 99 1005.2
20260506232423 51 51 0.0 5.0 0.00 0.00 0.00 99 1005.0
20260506231923 51 78 0.0 3.0 0.00 0.00 0.00 99 1005.0
20260506231423 51 53 0.0 3.0 0.00 0.00 0.00 99 1005.0
20260506230423 0 66 0.0 3.0 0.00 0.00 0.00 99 1005.0
20260506225923 0 75 0.0 4.0 0.00 0.00 0.00 99 1005.0
20260506225423 0 45 1.0 5.0 0.00 0.00 0.00 99 1005.0
20260506224923 0 63 2.0 5.0 0.00 0.00 0.00 99 1005.0
20260506224423 0 53 1.0 5.0 0.00 0.00 0.00 99 1005.0
20260506223923 0 48 0.0 5.0 0.00 0.00 0.00 99 1005.0
20260506223423 0 76 0.0 4.0 0.00 0.00 0.00 99 1005.0
20260506222923 0 44 0.0 3.0 0.00 0.00 0.00 99 1005.0
20260506222423 0 51 1.0 3.0 0.00 0.00 0.00 99 1005.0
20260506221923 0 46 0.0 5.0 0.00 0.00 0.00 99 1004.2
20260506221423 0 87 0.0 5.0 0.00 0.00 0.00 99 1004.1
20260506220923 0 37 1.0 4.0 0.00 0.00 0.00 99 1004.1
20260506220423 61 85 1.0 5.0 0.00 0.00 0.00 99 1004.0
20260506215923 0 128 2.0 5.0 0.00 0.00 0.00 99 1004.0
20260506215423 0 102 0.0 2.0 0.00 0.00 0.00 99 1004.0
20260506214923 0 210 0.0 0.0 0.00 0.00 0.00 99 1004.0
20260506214423 0 223 0.0 2.0 0.00 0.00 0.00 99 1003.2
20260506213923 0 223 0.0 2.0 0.00 0.00 0.00 99 1004.0
20260506213423 63 227 0.0 1.0 0.00 0.00 0.00 99 1003.2
20260506212923 0 190 0.0 0.0 0.00 0.00 0.00 99 1003.2
20260506212423 63 207 0.0 0.0 0.00 0.00 0.00 99 1003.2
20260506211923 63 218 0.0 2.0 0.00 0.00 0.00 99 1004.0
20260506211423 63 235 0.0 2.0 0.00 0.00 0.00 99 1004.0
20260506210923 63 213 0.0 2.0 0.00 0.00 0.00 99 1003.2
20260506210423 63 225 0.0 0.0 0.00 0.00 0.00 99 1003.2
20260506205923 63 227 0.0 0.0 0.00 0.00 0.00 99 1003.1
20260506205423 63 231 0.0 0.0 0.00 0.00 0.00 99 1003.0
20260506204923 63 231 0.0 1.0 0.00 0.00 0.00 99 1003.0
20260506204423 63 235 0.0 3.0 0.00 0.00 0.00 99 1003.0
20260506203423 63 228 1.0 5.0 0.00 0.00 0.00 99 1003.1
20260506202923 63 235 1.0 5.0 0.00 0.00 0.00 99 1003.2
20260506202423 63 240 0.0 3.0 0.00 0.00 0.00 99 1003.2
20260506201923 64 183 0.0 3.0 0.00 0.00 0.00 99 1003.0
20260506201423 64 222 0.0 0.0 0.00 0.00 0.00 99 1003.1
20260506200923 64 210 0.0 0.0 0.00 0.00 0.00 99 1003.1
20260506200423 63 213 0.0 0.0 0.00 0.00 0.00 99 1003.2
20260506195923 63 215 0.0 0.0 0.00 0.00 0.00 99 1003.2